COSMIC 1-3

operational
NORAD ID: 29050 Int'l Des: 2006-011 Owner: NSPO Country: TW
LEOCIRCULAR

Über COSMIC 1-3

Beschreibung wird geladen...

Live-Position

3D-Globus wird geladen...

Nächste Überflüge

Höhenverlauf

Altitude vs Time

uPlot chart will show altitude changes over time

Zweizeiliger Elementsatz

1 29050U 06011D 26061.04516757 .00002290 00000-0 41550-3 0 9995
2 29050 72.0147 184.3906 0041958 124.1004 236.4145 14.66642644 60665
Epoch: 2. März 2026 • Age: 28 hours

Aktueller Status

Höhe 650.0 km
Geschwindigkeit 7.55 km/s
Subsatellitenpunkt 50.93°N, 119.95°E
Startdatum 15. Apr. 2006
Alter 19.8 years
Typ other

Technische Details

Klassifizierung Payload
Masse 62.00 kg
Trockenmasse 56.00 kg
Gesamtmasse 62.00 kg
Länge 0.20 m
Durchmesser 1.00 m
Spannweite 4.30 m
Form Cyl + 2 Pan
Hersteller OSCD
Bus-Typ Microstar
Phasenstatus In Orbit
Besitzer/Staat NSPO/TW

Große Konstellationen

Loading constellations...